Location: Unspecified
(0.0000°N, 0.0000°E)
Time: 07:47:16
(UTC+02:00)

Tiangong 1 - Visible Passes

Search period start: 23 July 2014 00:00
Search period end: 02 August 2014 00:00
Orbit: 373 x 379 km, 42.8° (Epoch: 22 July)

Date Brightness Start Highest point End Pass type
(mag) Time Alt. Az. Time Alt. Az. Time Alt. Az.
27 Jul 2.7 21:26:24 10° NNW 21:28:22 24° NNE 21:28:22 24° NNE visible
28 Jul 3.9 22:00:14 10° WNW 22:01:19 18° W 22:01:19 18° W visible
29 Jul 1.0 20:57:32 10° NW 21:00:36 69° NE 21:02:14 25° SE visible
30 Jul 3.6 21:32:43 10° W 21:34:32 15° SW 21:35:14 14° SSW visible
31 Jul 3.8 07:25:29 10° SSE 07:26:54 13° SE 07:28:19 10° ESE visible
31 Jul 2.0 20:29:04 10° WNW 20:32:02 43° SW 20:35:00 10° SSE visible
